Wind_Speed
35 40 40 42 45 49 47 43 45 41 42 43 41 44 43 46 49 49 53 54 56 55 54 55 57 58 60 62 60 56 57 58 52 49 52 59 62 62 65 69 69 60 56 55 59 69 73 74 76
37 40 38 40 50 52 50 45 46 45 44 43 44 44 48 51 51 52 55 57 57 58 60 62 62 64 65 69 61 59 58 52 49 52 56 60 63 66 68 72 69 55 53 55 59 62 75 76 77
43 43 51 55 57 55 48 46 47 47 48 44 44 45 52 57 58 58 61 64 61 63 66 65 67 67 71 68 62 55 47 46 53 60 64 68 72 64 68 69 61 55 53 55 59 60 65 71 76
54 50 53 55 58 59 49 45 48 51 54 50 49 50 57 60 65 62 63 67 66 69 70 68 68 72 67 66 58 46 49 55 60 64 71 74 68 67 64 60 55 54 55 55 59 61 63 64 71
58 54 52 55 61 62 52 47 48 54 56 57 56 57 60 61 64 64 67 69 70 72 72 68 69 68 69 64 52 52 56 61 65 72 72 66 63 59 54 51 49 51 56 59 61 64 65 67 66
62 62 65 60 60 61 56 53 56 56 58 58 59 60 62 65 65 67 70 72 73 72 69 68 69 70 71 59 57 58 63 68 76 72 63 63 56 49 47 48 49 52 55 61 65 67 69 69 69
62 60 61 62 64 65 61 59 62 58 60 59 60 61 63 67 67 70 72 72 71 70 68 73 72 74 70 59 62 65 73 77 73 63 59 53 50 51 48 48 50 51 54 57 62 66 70 71 71
67 62 65 69 69 67 64 67 66 62 63 59 60 63 66 69 70 70 72 69 67 68 71 71 75 68 62 64 70 76 79 74 61 55 56 53 50 48 49 49 51 50 53 54 57 60 63 65 67
64 64 69 74 74 68 67 65 67 66 60 60 64 64 66 71 72 73 71 70 70 68 71 75 70 63 64 70 74 81 71 60 54 52 49 47 47 47 47 49 49 50 51 52 55 60 59 62 66
68 63 70 77 73 69 69 66 67 63 64 67 66 67 67 70 73 71 71 69 67 70 72 69 65 66 70 72 76 62 56 54 52 50 46 42 43 46 47 48 50 51 51 54 56 58 61 64 68
71 61 71 73 75 69 70 67 65 64 67 68 67 71 73 72 67 66 67 65 66 70 74 68 68 70 72 73 64 55 52 50 50 48 45 43 43 44 46 48 50 51 52 53 56 58 59 62 66
73 67 71 74 76 71 70 66 65 67 68 67 70 70 72 68 66 66 65 65 67 73 72 67 68 70 74 60 56 52 49 48 48 48 45 44 46 48 47 47 46 46 46 48 50 51 53 55 59
70 68 70 69 72 73 71 65 65 71 67 65 66 73 68 66 68 65 64 66 68 71 68 63 66 76 62 57 52 50 49 51 49 45 47 47 45 43 42 42 41 40 40 42 42 42 45 48 51
74 72 67 67 69 71 72 67 69 75 69 67 70 68 64 66 67 67 64 66 65 68 62 65 75 64 56 53 51 50 49 48 47 47 45 42 39 40 39 36 35 34 34 36 37 39 42 43 45
77 73 69 67 68 69 76 61 70 71 67 67 68 62 66 67 65 64 64 62 64 62 62 69 68 57 56 54 49 50 47 47 46 43 39 40 39 33 30 30 30 32 34 36 36 39 40 42 42
73 66 64 67 75 74 75 59 74 70 67 67 63 63 67 65 62 62 59 61 61 61 63 71 61 58 59 53 51 47 45 43 41 38 38 35 31 29 29 26 30 34 37 40 44 44 43 40 39
67 68 72 72 78 83 80 58 75 69 63 65 64 65 63 62 61 54 57 58 61 64 70 65 58 61 57 51 46 43 40 38 36 33 28 26 24 24 27 31 35 38 39 40 37 36 36 34 33
78 81 80 77 80 83 72 56 68 66 59 65 64 61 59 60 58 53 54 56 60 64 66 61 59 59 53 48 42 39 36 36 32 28 27 23 23 27 31 35 38 36 34 31 29 29 29 30 30
86 81 75 75 80 81 65 56 61 64 60 62 60 56 57 58 48 51 52 53 60 67 62 58 58 53 47 41 36 35 35 32 27 26 23 23 24 27 34 38 37 32 27 24 22 22 24 24 24
81 79 72 72 78 76 66 60 58 60 58 56 54 55 57 50 48 51 51 55 62 62 57 54 55 47 40 34 35 35 31 25 23 22 19 23 29 35 40 38 32 27 20 16 15 16 16 17 20
77 73 69 70 79 71 61 54 57 59 54 54 53 56 55 46 47 46 51 55 61 57 54 57 50 41 37 34 35 32 25 21 18 17 23 29 35 38 38 34 28 19 13 10 10 11 12 14 17
71 72 72 71 74 62 55 53 55 56 53 51 55 53 46 43 43 48 52 55 56 51 53 57 44 36 33 32 32 25 18 13 18 23 28 31 37 35 33 30 20 9 6 5 6 7 9 12 14
56 70 67 67 63 56 49 51 59 55 52 53 47 45 40 38 41 47 52 52 48 50 54 44 37 33 31 31 25 17 14 12 19 25 28 33 36 32 29 19 6 1 2 3 5 7 14 16 21
54 50 44 42 42 45 49 50 57 50 39 41 39 35 34 37 43 47 49 47 41 48 45 39 32 29 28 26 20 15 12 14 22 29 28 34 33 29 21 7 3 6 6 7 9 12 17 20 22
40 32 23 23 37 44 51 44 47 37 37 34 32 30 33 41 42 42 44 43 45 48 37 34 28 25 25 20 16 12 9 17 25 28 30 34 28 22 9 4 8 11 10 13 15 15 19 22 27
40 37 32 35 43 47 48 21 36 25 30 28 27 33 35 37 33 40 40 38 40 43 37 29 23 21 21 15 12 6 10 20 27 31 33 24 20 13 7 7 12 14 15 16 19 17 21 26 30
43 27 37 37 39 42 19 23 22 30 27 25 25 27 29 26 33 37 35 35 44 36 31 22 18 19 15 12 5 4 12 22 26 34 22 21 17 10 8 11 15 14 15 16 21 22 26 29 33
43 41 35 35 31 17 16 25 32 28 25 25 25 21 22 26 31 31 31 39 32 27 24 18 16 16 12 7 3 7 15 21 28 26 20 23 17 10 10 14 17 13 14 14 20 25 31 33 32
46 36 27 23 20 16 25 33 30 29 26 29 22 19 19 25 25 24 30 25 25 23 21 17 13 13 9 3 6 7 13 20 32 27 21 25 20 15 13 16 16 17 17 19 23 27 35 35 32
50 41 36 26 22 29 34 38 32 33 32 24 17 17 19 20 17 17 19 22 20 20 16 13 11 11 7 2 6 5 14 20 30 30 22 22 26 22 18 15 13 13 17 17 25 30 37 35 37
Wind_Direction
270 277 279 276 279 279 287 295 307 306 302 307 307 308 305 304 306 305 302 300 305 307 307 308 307 306 310 312 311 301 301 297 297 299 293 293 292 291 289 293 292 283 269 259 245 239 236 236 232
256 259 264 278 271 279 292 290 306 306 303 304 305 305 307 307 305 303 302 301 305 306 308 311 308 306 310 313 310 306 300 297 298 297 295 295 295 292 290 291 289 276 262 251 243 238 235 234 233
259 262 261 271 281 281 289 290 303 305 304 302 302 301 302 306 305 302 302 304 307 307 310 309 309 309 312 313 309 302 299 303 304 299 297 296 291 288 289 286 279 273 261 248 241 240 237 238 235
255 256 257 269 273 278 286 291 299 304 301 300 301 300 303 305 304 301 299 303 306 307 309 308 308 311 313 310 307 306 306 304 302 299 301 296 286 284 282 278 271 269 260 251 244 240 241 239 237
261 261 262 265 270 276 281 287 294 298 298 297 303 303 301 301 301 299 298 304 305 306 306 308 311 311 312 309 307 306 304 304 300 300 296 291 286 281 275 271 268 264 256 253 247 243 241 241 240
263 264 268 269 270 275 283 287 288 294 301 297 299 302 301 299 303 301 302 303 304 303 305 308 310 311 311 311 310 308 305 305 302 299 292 289 284 277 272 269 267 264 257 249 250 248 246 245 245
262 266 270 274 272 281 283 287 287 292 302 298 298 300 300 301 302 303 302 305 303 304 308 309 310 310 310 308 309 308 307 306 302 296 294 290 283 276 273 268 267 264 258 253 250 250 251 250 250
267 267 273 272 273 276 280 284 289 294 299 297 297 301 303 303 303 300 304 303 301 307 310 310 310 310 310 313 312 309 306 301 298 294 291 286 284 275 271 271 267 263 258 255 250 250 251 251 248
269 268 270 269 271 272 276 285 288 296 294 296 298 300 301 301 302 300 302 301 306 310 311 309 310 312 314 313 310 306 302 299 295 295 293 281 279 276 274 273 269 263 260 257 256 253 252 252 251
267 272 270 270 272 271 281 280 285 293 294 291 297 297 298 298 300 301 301 304 305 307 307 311 312 315 313 314 310 306 302 296 294 294 291 282 276 275 273 271 268 267 264 259 257 254 252 251 251
267 270 272 271 271 279 276 279 289 287 288 289 296 298 296 296 298 302 302 305 307 308 310 311 312 314 315 313 307 306 300 297 295 293 288 285 282 279 277 273 270 268 265 263 260 257 256 254 252
268 269 271 270 275 278 271 279 285 288 283 293 295 294 296 296 299 301 303 307 309 310 310 312 315 317 317 309 309 305 302 302 298 291 293 292 288 284 281 277 272 269 268 266 262 258 256 254 252
270 264 267 270 272 270 270 279 284 280 287 290 293 298 296 296 300 303 304 308 310 309 310 312 317 320 314 314 309 306 303 305 300 300 298 295 292 289 284 280 275 271 266 263 261 259 254 253 251
263 267 271 268 269 265 269 279 283 280 287 290 292 295 296 297 300 300 306 309 309 309 312 316 318 317 315 313 311 309 306 306 304 303 299 296 293 287 283 280 278 274 273 272 273 271 266 262 255
265 267 267 267 261 263 267 279 278 280 286 287 291 293 295 295 299 303 308 308 307 311 316 319 321 318 316 314 312 309 309 306 305 301 299 296 292 285 282 282 285 285 289 289 287 283 275 267 259
261 263 264 260 261 263 270 273 275 278 282 284 288 292 295 296 299 306 305 305 311 316 319 323 319 318 316 314 312 310 307 306 303 301 300 296 295 294 293 290 290 293 297 294 285 279 271 264 256
258 257 256 257 262 262 268 274 272 276 282 282 287 290 293 296 302 303 302 308 314 320 322 323 318 316 313 314 311 309 306 305 305 306 304 299 298 305 308 307 304 300 296 288 279 272 266 258 251
255 253 254 258 263 267 271 275 268 275 280 280 285 289 292 297 303 300 304 312 318 321 322 318 314 312 312 311 311 307 310 311 312 317 312 314 322 324 321 311 304 299 293 283 274 264 259 254 248
253 257 260 262 261 267 271 268 268 276 276 278 283 289 293 297 298 297 307 313 318 321 319 315 314 313 313 312 307 314 316 317 325 322 329 334 331 325 319 310 305 299 292 283 268 257 252 245 238
257 258 259 256 258 262 267 270 270 270 274 277 282 288 292 297 296 302 308 316 319 318 314 316 316 314 313 312 313 320 318 326 326 330 339 333 323 321 317 313 303 300 289 270 262 256 244 238 227
256 256 252 251 257 264 266 267 263 269 273 276 283 288 293 292 298 304 313 317 320 313 316 316 316 313 310 315 318 319 323 326 326 334 334 334 328 320 316 311 306 302 276 261 251 240 231 223 212
253 252 253 254 261 265 264 261 263 264 269 274 279 286 289 294 300 309 313 318 313 315 318 315 310 309 315 318 320 320 322 328 331 341 336 334 326 322 318 315 310 289 275 241 234 219 198 178 184
256 258 259 263 268 268 256 253 257 260 265 273 279 286 291 296 302 308 311 316 314 317 312 311 308 311 317 321 323 323 327 327 339 340 335 335 332 326 318 319 304 299 156 165 174 164 151 159 171
262 264 260 264 261 250 245 243 252 260 262 269 277 282 296 298 303 307 311 308 315 312 310 311 311 316 320 325 329 326 335 338 342 334 334 336 332 325 324 338 45 103 106 131 124 147 156 157 158
260 258 242 246 239 234 240 240 250 253 261 266 273 286 295 297 301 301 302 307 312 308 308 308 312 320 324 330 326 323 336 345 346 339 335 333 335 327 353 32 95 101 103 113 132 138 143 146 153
239 236 217 212 216 225 232 218 249 250 253 264 280 292 289 296 288 291 299 308 305 298 307 305 313 328 329 327 317 336 356 356 350 345 339 345 338 353 43 84 105 96 108 117 129 134 138 147 150
224 216 210 204 206 217 212 242 248 251 262 275 282 287 291 280 284 289 305 303 296 301 303 301 326 336 334 329 336 32 16 6 355 349 359 358 9 26 85 97 99 101 114 115 129 136 142 150 149
240 229 222 206 212 205 216 238 244 257 263 272 286 281 277 274 280 296 295 293 300 306 303 310 326 344 345 339 124 53 21 10 6 5 9 13 24 59 100 100 110 109 121 117 128 140 153 153 150
238 237 222 222 220 210 233 236 252 251 265 271 279 267 259 269 285 295 288 314 306 307 306 306 333 348 351 341 125 62 24 28 20 16 31 31 41 69 92 104 112 115 121 132 139 142 154 151 150
224 229 223 201 216 219 229 245 252 260 263 270 268 241 250 267 291 292 312 311 307 305 303 314 348 347 353 145 147 76 46 35 31 27 43 54 53 62 71 81 106 118 138 144 152 157 161 164 150
Height
10918 10920 10918 10920 10920 10918 10921 10922 10917 10914 10911 10909 10903 10901 10898 10896 10896 10894 10891 10889 10889 10886 10883 10880 10876 10873 10868 10864 10860 10855 10851 10848 10844 10841 10838 10836 10834 10832 10829 10827 10825 10823 10824 10825 10826 10829 10834 10842 10850
10908 10911 10912 10912 10910 10912 10914 10915 10914 10909 10907 10902 10898 10895 10888 10884 10884 10884 10882 10880 10878 10874 10870 10867 10864 10859 10856 10853 10847 10843 10839 10835 10831 10829 10828 10824 10820 10817 10812 10809 10807 10805 10808 10809 10811 10814 10819 10824 10832
10899 10901 10901 10901 10902 10904 10907 10908 10906 10903 10899 10897 10893 10889 10883 10878 10874 10871 10868 10866 10864 10861 10858 10855 10850 10847 10843 10837 10834 10830 10826 10822 10819 10816 10813 10810 10806 10801 10797 10792 10789 10788 10790 10794 10798 10801 10805 10809 10815
10891 10892 10894 10893 10893 10894 10898 10902 10901 10896 10893 10889 10888 10884 10875 10871 10867 10862 10857 10857 10854 10849 10846 10842 10839 10833 10827 10824 10819 10815 10812 10810 10807 10802 10796 10791 10788 10784 10781 10778 10774 10773 10775 10778 10783 10788 10791 10795 10800
10885 10886 10887 10886 10885 10885 10891 10894 10894 10891 10886 10881 10879 10876 10871 10865 10862 10856 10850 10848 10842 10837 10833 10831 10828 10822 10816 10810 10805 10802 10800 10797 10792 10787 10779 10773 10770 10767 10765 10763 10762 10763 10763 10764 10768 10773 10778 10782 10784
10876 10879 10880 10878 10876 10877 10880 10885 10886 10885 10880 10876 10871 10867 10861 10855 10852 10846 10842 10839 10834 10828 10824 10822 10818 10810 10805 10798 10792 10789 10786 10781 10776 10767 10761 10758 10753 10752 10751 10750 10750 10748 10748 10750 10752 10756 10760 10765 10771
10866 10871 10873 10871 10867 10867 10869 10874 10873 10876 10873 10867 10863 10859 10853 10848 10843 10836 10832 10830 10823 10817 10813 10810 10804 10798 10792 10786 10780 10775 10770 10763 10756 10747 10743 10740 10738 10736 10737 10737 10736 10736 10735 10735 10738 10741 10746 10752 10757
10859 10866 10865 10862 10858 10860 10859 10862 10860 10864 10861 10857 10852 10852 10845 10838 10834 10827 10823 10818 10810 10807 10803 10797 10791 10784 10780 10774 10766 10759 10752 10745 10740 10736 10729 10724 10723 10722 10722 10722 10721 10721 10721 10721 10723 10726 10729 10734 10739
10849 10859 10855 10847 10851 10850 10850 10854 10846 10851 10850 10846 10843 10842 10839 10828 10824 10818 10813 10806 10800 10796 10791 10786 10778 10773 10767 10762 10752 10743 10736 10729 10725 10721 10717 10713 10710 10707 10707 10706 10705 10705 10707 10709 10710 10711 10714 10716 10720
10840 10850 10846 10835 10841 10843 10844 10844 10841 10841 10835 10830 10835 10831 10831 10824 10817 10809 10803 10797 10791 10788 10782 10773 10766 10760 10754 10746 10736 10728 10722 10716 10711 10707 10704 10702 10699 10695 10693 10692 10690 10691 10692 10693 10695 10696 10698 10701 10704
10829 10843 10832 10832 10826 10840 10833 10832 10835 10830 10827 10822 10824 10821 10816 10814 10809 10802 10797 10791 10784 10778 10770 10761 10753 10747 10739 10730 10722 10716 10708 10702 10697 10693 10691 10687 10684 10681 10680 10679 10676 10675 10675 10677 10678 10680 10682 10683 10685
10822 10829 10822 10822 10819 10828 10821 10829 10824 10817 10816 10818 10812 10812 10806 10801 10798 10792 10788 10782 10773 10767 10760 10753 10744 10734 10725 10715 10710 10702 10695 10689 10684 10680 10676 10673 10670 10667 10665 10664 10662 10660 10659 10659 10660 10662 10665 10666 10668
10812 10813 10812 10816 10815 10809 10808 10818 10818 10800 10811 10811 10803 10801 10797 10791 10787 10781 10777 10771 10764 10758 10750 10741 10733 10724 10714 10705 10698 10691 10683 10678 10671 10666 10663 10660 10656 10652 10649 10648 10646 10646 10645 10645 10645 10647 10648 10649 10651
10795 10801 10806 10808 10806 10795 10793 10810 10804 10789 10804 10801 10795 10792 10787 10781 10779 10772 10767 10760 10754 10747 10740 10730 10722 10712 10703 10696 10688 10680 10673 10666 10660 10656 10651 10647 10645 10642 10637 10634 10633 10633 10633 10632 10633 10633 10633 10634 10635
10783 10792 10795 10799 10789 10788 10779 10808 10788 10787 10793 10790 10786 10784 10779 10774 10771 10763 10756 10751 10746 10737 10728 10719 10710 10701 10693 10686 10678 10670 10662 10657 10652 10647 10643 10638 10634 10631 10628 10626 10623 10621 10621 10621 10619 10618 10618 10618 10619
10769 10779 10788 10784 10770 10771 10775 10803 10770 10777 10783 10779 10777 10774 10769 10764 10761 10753 10747 10742 10736 10727 10717 10709 10700 10692 10683 10676 10668 10660 10655 10650 10645 10640 10635 10630 10625 10621 10619 10617 10614 10613 10610 10608 10605 10603 10602 10604 10605
10761 10770 10768 10761 10750 10753 10768 10790 10754 10766 10771 10766 10766 10765 10761 10757 10752 10745 10739 10733 10725 10715 10706 10697 10690 10682 10675 10667 10659 10654 10648 10643 10637 10631 10626 10621 10617 10613 10610 10607 10604 10602 10599 10596 10592 10589 10589 10591 10594
10738 10739 10746 10758 10738 10737 10761 10776 10757 10755 10764 10756 10756 10755 10752 10749 10743 10736 10731 10725 10717 10708 10698 10691 10683 10673 10667 10658 10651 10646 10640 10635 10628 10622 10618 10613 10608 10604 10602 10599 10595 10592 10587 10583 10581 10580 10580 10582 10585
10714 10722 10739 10737 10727 10725 10751 10758 10752 10744 10753 10749 10747 10745 10744 10740 10734 10730 10724 10717 10709 10700 10692 10684 10675 10665 10658 10651 10645 10640 10633 10627 10620 10616 10612 10607 10603 10600 10595 10590 10585 10580 10576 10573 10572 10573 10573 10574 10577
10705 10715 10725 10719 10708 10720 10737 10746 10741 10734 10739 10741 10738 10736 10735 10730 10726 10722 10717 10710 10702 10692 10685 10676 10667 10658 10651 10645 10638 10632 10627 10621 10616 10612 10608 10604 10599 10594 10587 10580 10575 10572 10568 10567 10566 10567 10567 10569 10571
10687 10697 10703 10702 10693 10716 10729 10735 10727 10724 10732 10729 10727 10726 10724 10721 10719 10714 10708 10702 10694 10686 10677 10668 10659 10652 10645 10638 10631 10627 10622 10616 10613 10609 10605 10599 10593 10587 10579 10573 10568 10566 10563 10562 10563 10564 10564 10566 10568
10668 10672 10683 10687 10686 10710 10718 10723 10717 10716 10720 10719 10718 10717 10715 10714 10710 10706 10701 10694 10685 10677 10667 10660 10654 10647 10639 10633 10627 10622 10618 10613 10610 10606 10601 10595 10588 10581 10574 10568 10564 10561 10561 10560 10561 10562 10563 10565 10570
10657 10662 10674 10678 10689 10699 10707 10709 10699 10709 10707 10708 10709 10708 10706 10705 10702 10698 10693 10686 10677 10669 10662 10656 10649 10641 10634 10628 10623 10619 10614 10612 10608 10604 10598 10591 10584 10577 10571 10565 10560 10560 10560 10560 10561 10562 10564 10568 10572
10644 10652 10663 10671 10681 10690 10688 10691 10688 10698 10696 10699 10701 10701 10699 10697 10695 10691 10684 10678 10672 10665 10657 10651 10643 10636 10630 10625 10621 10616 10613 10611 10606 10601 10595 10588 10581 10575 10569 10563 10561 10560 10560 10561 10563 10565 10567 10570 10574
10635 10641 10652 10662 10672 10674 10669 10684 10683 10686 10688 10692 10695 10694 10692 10691 10687 10681 10676 10670 10665 10658 10652 10646 10638 10632 10627 10622 10619 10615 10613 10610 10605 10599 10592 10586 10579 10574 10568 10564 10563 10563 10563 10564 10567 10569 10571 10573 10577
10623 10629 10639 10646 10652 10658 10660 10676 10673 10678 10680 10685 10688 10688 10686 10683 10679 10675 10672 10666 10661 10654 10647 10641 10634 10629 10624 10620 10616 10614 10613 10609 10603 10597 10590 10584 10579 10572 10569 10567 10566 10566 10568 10569 10570 10574 10577 10579 10583
10613 10631 10630 10637 10642 10648 10666 10666 10669 10669 10675 10680 10682 10681 10679 10675 10674 10671 10667 10662 10657 10649 10643 10637 10631 10626 10621 10617 10615 10614 10613 10609 10603 10597 10591 10584 10578 10573 10571 10571 10570 10572 10574 10575 10576 10580 10584 10586 10590
10613 10618 10628 10637 10642 10653 10659 10659 10658 10663 10669 10674 10675 10673 10672 10672 10669 10667 10663 10659 10651 10645 10640 10633 10629 10624 10619 10616 10615 10614 10613 10609 10604 10597 10592 10586 10579 10575 10575 10575 10575 10577 10578 10581 10583 10587 10590 10593 10597
10602 10615 10627 10634 10642 10648 10650 10650 10655 10659 10664 10668 10667 10667 10667 10667 10665 10662 10659 10653 10647 10641 10637 10631 10627 10622 10618 10616 10615 10614 10614 10610 10606 10599 10595 10589 10583 10580 10579 10580 10580 10582 10584 10586 10589 10594 10598 10602 10607
10595 10606 10613 10626 10635 10639 10639 10643 10651 10655 10657 10661 10660 10661 10664 10663 10661 10658 10653 10649 10643 10638 10633 10629 10625 10620 10617 10615 10614 10614 10614 10612 10609 10603 10598 10594 10589 10586 10585 10585 10586 10586 10589 10592 10595 10599 10604 10609 10615